TimeEDT,TemperatureF,Dew PointF,Humidity,Sea Level PressureIn,VisibilityMPH,Wind Direction,Wind SpeedMPH,Gust SpeedMPH,PrecipitationIn,Events,Conditions,WindDirDegrees,DateUTC
12:56 AM,66.0,61.0,84,30.04,10.0,East,3.5,-,N/A,,Clear,80,2013-09-24 04:56:00
1:56 AM,64.0,60.1,87,30.04,10.0,NE,5.8,-,N/A,,Partly Cloudy,40,2013-09-24 05:56:00
2:56 AM,64.9,60.1,84,30.03,10.0,NE,4.6,-,N/A,,Scattered Clouds,40,2013-09-24 06:56:00
3:56 AM,64.9,60.1,84,30.02,10.0,ENE,4.6,-,N/A,,Scattered Clouds,60,2013-09-24 07:56:00
4:56 AM,64.9,60.1,84,30.02,10.0,ENE,4.6,-,N/A,,Partly Cloudy,70,2013-09-24 08:56:00
5:56 AM,64.0,59.0,84,30.03,10.0,NE,4.6,-,N/A,,Scattered Clouds,40,2013-09-24 09:56:00
6:56 AM,64.9,59.0,81,30.04,10.0,NE,4.6,-,N/A,,Mostly Cloudy,40,2013-09-24 10:56:00
7:56 AM,66.0,60.1,81,30.05,10.0,NE,5.8,-,N/A,,Mostly Cloudy,40,2013-09-24 11:56:00
8:56 AM,68.0,60.1,76,30.06,10.0,ENE,6.9,-,N/A,,Scattered Clouds,60,2013-09-24 12:56:00
9:56 AM,75.0,59.0,57,30.05,10.0,ENE,9.2,18.4,N/A,,Partly Cloudy,60,2013-09-24 13:56:00
10:56 AM,78.1,60.1,54,30.05,10.0,NE,11.5,-,N/A,,Scattered Clouds,50,2013-09-24 14:56:00
11:56 AM,79.0,61.0,54,30.03,10.0,ENE,10.4,-,N/A,,Scattered Clouds,60,2013-09-24 15:56:00
12:56 PM,80.1,61.0,52,30.02,10.0,NE,12.7,17.3,N/A,,Scattered Clouds,50,2013-09-24 16:56:00
1:56 PM,81.0,61.0,50,30.00,10.0,ESE,10.4,19.6,N/A,,Scattered Clouds,110,2013-09-24 17:56:00
2:56 PM,80.1,61.0,52,29.98,10.0,ESE,9.2,-,N/A,,Scattered Clouds,120,2013-09-24 18:56:00
3:56 PM,80.1,61.0,52,29.96,10.0,East,9.2,18.4,N/A,,Scattered Clouds,100,2013-09-24 19:56:00
4:56 PM,79.0,61.0,54,29.95,10.0,East,13.8,18.4,N/A,,Mostly Cloudy,100,2013-09-24 20:56:00
5:56 PM,75.9,60.1,58,29.96,10.0,ESE,12.7,-,N/A,,Mostly Cloudy,120,2013-09-24 21:56:00
6:56 PM,73.9,61.0,64,29.95,10.0,East,10.4,-,N/A,,Scattered Clouds,90,2013-09-24 22:56:00
7:56 PM,72.0,61.0,68,29.94,10.0,ENE,5.8,-,N/A,,Scattered Clouds,70,2013-09-24 23:56:00
8:56 PM,70.0,61.0,73,29.94,10.0,ENE,6.9,-,N/A,,Partly Cloudy,70,2013-09-25 00:56:00
9:56 PM,69.1,62.1,78,29.94,10.0,NE,5.8,-,N/A,,Partly Cloudy,50,2013-09-25 01:56:00
10:56 PM,68.0,62.1,81,29.94,10.0,NE,6.9,-,N/A,,Scattered Clouds,50,2013-09-25 02:56:00
11:40 PM,69.8,62.6,78,29.92,10.0,ENE,9.2,-,N/A,,Mostly Cloudy,60,2013-09-25 03:40:00
11:56 PM,69.1,63.0,81,29.92,10.0,ENE,6.9,-,N/A,,Scattered Clouds,70,2013-09-25 03:56:00